Location: Vibo Valentia
(38.6670°N, 16.1000°E)
Time: 11:02:56
(UTC+02:00)

STARLINK-1353 - Pass Details

Date: 09 October 2020
Orbit: 530 x 533 km, 53.0° (Epoch: 22 October)

Event Time Altitude Azimuth Distance (km) Brightness Sun altitude
Exits shadow 05:58:46 - 325° (NW) 2,261 6.4 -12.6°
Reaches altitude 10° 06:00:21 10° 338° (NNW) 1,785 6.0 -12.3°
Maximum altitude 06:03:09 18° 22° (NNE) 1,364 5.9 -11.7°
Drops below altitude 10° 06:05:56 10° 66° (ENE) 1,783 7.4 -11.2°
Sets 06:08:45 0° 86° (E) 2,671 9.4 -10.7°
